Regional Weather Roundup
Issued by NWS

Home | Current Version | Previous Version | Graphics & Text | Print | Product List | Glossary On
Versions: 1 2 3 4 5 6 7 8 9 10 11 12 13 14 15 16 17 18 19 20 21 22 23 24 25 26 27 28 29 30 31 32 33 34 35 36 37 38 39 40 41 42 43 44 45 46 47 48 49 50
000
ASUS45 KABQ 200801
RWRNM
NEW MEXICO REGIONAL WEATHER ROUNDUP
NATIONAL WEATHER SERVICE ALBUQUERQUE NM
200 AM MDT FRI OCT 20 2017

NOTE: "FAIR" MEANS FEW OR NO CLOUDS BELOW 12,000 FEET AGL WITH NO
       SIGNIFICANT WEATHER OR OBSTRUCTIONS TO VISION.

      THIS PRODUCT IS RELEASED AS TWO VERSIONS.  ONE VERSION NEAR
      THE TOP OF THE HOUR CONTAINING PRELIMINARY DATA FROM ALBUQUERQUE
      AND OTHER STATIONS.  A FINAL VERSION WITH ADDITIONAL DATA IS
      ISSUED ABOUT 10 MINUTES AFTER THE HOUR.

NMZ501-503-504-510>518-200900-
NORTHWEST PLATEAU/NORTHCENTRAL MOUNTAINS

CITY           SKY/WX    TMP DP  RH WIND       PRES   REMARKS
FARMINGTON     FAIR      50  37  61 NE7       29.99F
LOS ALAMOS     CLOUDY    55  37  51 SW6       30.10F
SANTA FE       FAIR      51  45  79 CALM      30.08F
TAOS           CLOUDY    49  36  61 CALM      30.12
ANGEL FIRE     FAIR      31  28  89 CALM      30.16S

$$
NMZ402-403-502-505>509-200900-
WESTCENTRAL MOUNTAINS/SOUTHWEST MOUNTAINS

CITY           SKY/WX    TMP DP  RH WIND       PRES   REMARKS
GALLUP         FAIR      43  37  79 CALM      30.07F
GRANTS         FAIR      44  44  99 S5        30.11F
SILVER CITY    FAIR      45  41  84 N5        30.09R

$$
NMZ407-409-411-412-200900-
SOUTHERN DESERTS

CITY           SKY/WX    TMP DP  RH WIND       PRES   REMARKS
DEMING         FAIR      56  49  77 SE6       30.06R
LAS CRUCES     FAIR      56  53  91 CALM      30.07S
ALAMOGORDO     FAIR      55  50  82 W6        30.04R
T OR C         FAIR      52  50  93 W9        30.05F

$$
NMZ519>523-200900-
CENTRAL VALLEYS/CENTRAL HIGHLANDS

CITY           SKY/WX    TMP DP  RH WIND       PRES   REMARKS
ALBUQUERQUE    MOCLDY    53  49  86 SE8       30.06F
MORIARTY ARPT  FAIR      53  45  75 CALM      30.08F
CLINES CORNERS FAIR      48  42  80 W16       30.10S
BELEN          FAIR      53  49  86 SE7       30.05F
SOCORRO        FAIR      50  49  95 S7        30.06S

$$
NMZ524>526-539-540-200900-
SOUTHCENTRAL MOUNTAINS

CITY           SKY/WX    TMP DP  RH WIND       PRES   REMARKS
RUIDOSO        FAIR      48  43  81 SW5       30.16S

$$
NMZ527>531-200900-
NORTHEAST HIGHLANDS/NORTHEAST PLAINS

CITY           SKY/WX    TMP DP  RH WIND       PRES   REMARKS
LAS VEGAS      FAIR      46  38  73 S13       30.06F
RATON          FAIR      42  39  89 N6        30.01F
CLAYTON        FAIR      50  50 100 S16       29.96F

$$
NMZ532>537-200900-
EASTCENTRAL PLAINS

CITY           SKY/WX    TMP DP  RH WIND       PRES   REMARKS
SANTA ROSA     FAIR      51  50  94 CALM      29.99S
TUCUMCARI      FAIR      58  52  80 S5        29.93F
CANNON AFB     FAIR      55  55 100 S14       30.01F
CLOVIS AIRPORT NOT AVBL

$$
NMZ028-029-538-200900-
SOUTHEAST PLAINS

CITY           SKY/WX    TMP DP  RH WIND       PRES   REMARKS
ROSWELL        FAIR      58  56  93 S7        30.03R
ARTESIA        MOCLDY    59  59 100 S28       30.03F
CARLSBAD       LGT RAIN  59  59 100 S6        30.10F
HOBBS          DRIZZLE   59  55  88 W13       30.13R


$$




USA.gov is the U.S. government's official web portal to all federal, state and local government web resources and services.